Regional Weather Roundup
Issued by NWS

Home | Current Version | Previous Version | Graphics & Text | Print | Product List | Glossary On
Versions: 1 2 3 4 5 6 7 8 9 10 11 12 13 14 15 16 17 18 19 20 21 22 23 24 25 26 27 28 29 30 31 32 33 34 35 36 37 38 39 40 41 42 43 44 45 46 47 48 49 50
000
ASUS43 KFSD 290202
RWRSD

WEATHER ROUNDUP FOR SOUTH DAKOTA
NATIONAL WEATHER SERVICE SIOUX FALLS SD
900 PM CDT FRI JUL 28 2017

NOTE: "FAIR" INDICATES FEW OR NO CLOUDS BELOW 12,000 FEET WITH NO
SIGNIFICANT WEATHER AND/OR OBSTRUCTIONS TO VISIBILITY.


SDZ001>005-009-010-012>017-290300-
NORTHWEST AND NORTH CENTRAL SOUTH DAKOTA

CITY           SKY/WX    TMP DP  RH WIND       PRES   REMARKS
BUFFALO          N/A     84  57  39 E5        29.92S
FAITH            N/A     79  62  56 SE15      29.98S
MOBRIDGE       CLEAR     79  62  56 SE14      29.97S
$$

SDZ012>016-024>037-041>051-057-063-072>074-290300-
SOUTHWEST AND SOUTH CENTRAL SOUTH DAKOTA

CITY           SKY/WX    TMP DP  RH WIND       PRES   REMARKS
RAPID CTY ARPT CLEAR     81  62  52 SE5       29.99F
PIERRE         PTCLDY    80  58  46 SE18      29.96S
CUSTER         CLEAR     71  60  68 MISG      30.17S
ELLSWORTH AFB  CLEAR     86  54  33 CALM      29.99F
PHILIP         PTCLDY    73  62  68 SE12      29.96S
PINE RIDGE     CLEAR     76  67  73 SW6       30.00F
SPEARFISH      LGT RAIN  79  61  53 E7        30.05S
WINNER         FAIR      80  61  52 SE14      30.01R
$$

SDZ004>011-016>023-039-040-290300-
NORTHEAST SOUTH DAKOTA

CITY           SKY/WX    TMP DP  RH WIND       PRES   REMARKS
ABERDEEN       CLEAR     72  63  73 S6        30.03S
WATERTOWN      CLEAR     73  62  68 S8        30.06S
BROOKINGS      CLEAR     73  61  65 SE7       30.07S
SISSETON         N/A     74  63  68 SE7       30.03S
$$

SDZ017-020-022-023-036>040-048>070-290300-
SOUTHEAST SOUTH DAKOTA

CITY           SKY/WX    TMP DP  RH WIND       PRES   REMARKS
SIOUX FALLS    PTCLDY    74  64  71 E7        30.05S
HURON          CLEAR     74  62  66 SE7       30.02F
CHAMBERLAIN    CLOUDY    78  64  60 SE10      30.00F
MITCHELL       CLEAR     73  64  73 SE7       30.04S
YANKTON        CLEAR     74  63  68 E5        30.04F
$$

ABBREVIATIONS USED IN REMARKS
   TC - TEMPERATURE IN CELSIUS
  WCI - WIND CHILL INDEX
   HX - HEAT INDEX
  VSB - VISIBILITY





USA.gov is the U.S. government's official web portal to all federal, state and local government web resources and services.